Home > Time Zones > World Clock > Weather > Iran > Ahvaz > Past weeks

Flag for Iran Weather past 2 weeks in Ahvaz, Iran

Now
70 °F

Clear.


Feels Like: 70 °F
Forecast: 62 / 87 °F
Wind: 5 mph from Northwest

Location: Ahwaz

Current Time: Oct 25, 2014 at 7:54:57 AM

Latest Report: Oct 25, 2014 at 7:30 AM


Visibility: 5 mi

Pressure: 29.89 "Hg

Humidity: 50%

Dew point: 50 °F

Location of AhvazLocation

Historic Weather in Ahvaz — Graph

°F

Ahvaz temperature yesterday

Maximum temperature yesterday: 91 °F (at 3:00 PM)
Minimum temperature yesterday: 61 °F (at 2:30 AM)
Average temperature yesterday: 76 °F

Past Weeks' High & Low Weather Summary

 TemperatureHumidityPressure
High102 °F (Oct 12, 2:30 PM)94% (Oct 22, 4:30 AM)30.12 "Hg (Oct 22, 4:30 AM)
Low59 °F (Oct 22, 4:30 AM)15% (Oct 10, 11:00 AM)29.68 "Hg (Oct 20, 4:30 PM)
Average81 °F43%29.90 "Hg
* Reported Oct 10 6:30 AM — Oct 25 7:00 AM, Ahvaz, Weather by CustomWeather, © 2014

Note: Actual official high and low records may vary slightly from our data, if they occured in-between our weather recording intervals... More about our weather records

Advertising

Ahvaz weather history for previous 24 hours

 ConditionsComfort  
Time TempWeatherWind HumidityBarometerVisibility
7:00 AM
Oct 25
68 °FSunny.5 mph53%29.89 "Hg5 mi
6:30 AM68 °FClear.No wind53%29.89 "Hg5 mi
5:30 AM66 °FClear.5 mph73%29.89 "Hg10 mi
4:30 AM64 °FClear.No wind78%29.86 "Hg10 mi
3:30 AM64 °FClear.No wind78%29.89 "Hg10 mi
2:30 AM66 °FClear.No wind68%29.89 "Hg10 mi
1:30 AM66 °FClear.2 mph68%29.89 "Hg10 mi
12:30 AM68 °FClear.No wind64%29.89 "Hg10 mi
12:00 AM68 °FClear.5 mph64%29.89 "Hg10 mi
11:30 PM
Oct 24
68 °FClear.No wind60%29.89 "Hg10 mi
11:00 PM70 °FClear.No wind69%29.89 "Hg10 mi
10:30 PM70 °FClear.No wind69%29.89 "Hg10 mi
10:00 PM70 °FClear.No wind69%29.92 "Hg10 mi
9:30 PM70 °FClear.No wind69%29.92 "Hg10 mi
9:00 PM72 °FClear.No wind65%29.89 "Hg10 mi
8:30 PM73 °FClear.No wind61%29.89 "Hg10 mi
8:00 PM73 °FClear.No wind61%29.89 "Hg10 mi
7:30 PM75 °FClear.No wind57%29.89 "Hg10 mi
7:00 PM77 °FClear.No wind54%29.89 "Hg10 mi
6:30 PM79 °FClear.No wind51%29.89 "Hg10 mi
6:00 PM82 °FSunny.No wind35%29.89 "Hg10 mi
5:30 PM86 °FSunny.No wind31%29.89 "Hg10 mi
5:00 PM88 °FSunny.2 mph29%29.89 "Hg10 mi
4:30 PM90 °FSunny.7 mph27%29.89 "Hg10 mi
4:00 PM90 °FSunny.5 mph26%29.89 "Hg10 mi
3:30 PM90 °FSunny.5 mph26%29.89 "Hg10 mi
3:00 PM91 °FSunny.7 mph21%29.89 "Hg10 mi
2:30 PM90 °FSunny.2 mph22%29.89 "Hg10 mi
2:00 PM88 °FSunny.2 mph25%29.92 "Hg10 mi
1:30 PM88 °FSunny.2 mph25%29.92 "Hg10 mi
1:00 PM86 °FSunny.5 mph29%29.92 "Hg10 mi
12:30 PM86 °FSunny.5 mph29%29.95 "Hg10 mi
12:00 PM86 °FSunny.5 mph31%29.92 "Hg10 mi
11:30 AM82 °FSunny.2 mph32%29.95 "Hg10 mi
11:00 AM81 °FSunny.7 mph39%29.98 "Hg10 mi
10:30 AM81 °FSunny.2 mph39%29.98 "Hg10 mi
10:00 AM77 °FSunny.2 mph44%29.95 "Hg10 mi
9:30 AM73 °FSunny.2 mph44%29.98 "Hg10 mi
8:30 AM70 °FSunny.5 mph50%29.95 "Hg10 mi
8:00 AM68 °FSunny.No wind56%29.92 "Hg10 mi
7:30 AM66 °FSunny.5 mph60%29.95 "Hg10 mi
7:00 AM63 °FSunny.2 mph68%29.92 "Hg10 mi
Weather by CustomWeather, © 2014

See weather overviewHow to use our weather pages